Regional Weather Roundup
Issued by NWS

Home | Current Version | Previous Version | Text Only | Print | Product List | Glossary Off
Versions: 1 2 3 4 5 6 7 8 9 10 11 12 13 14 15 16 17 18 19 20 21 22 23 24 25 26 27 28 29 30 31 32 33 34 35 36 37 38 39 40 41 42 43 44 45 46 47 48 49 50

000
ASUS45 KBOU 201107
RWRCO

WEATHER ROUNDUP FOR COLORADO
NATIONAL WEATHER SERVICE DENVER/BOULDER CO
500 AM MDT MON OCT 20 2014

NOTE: "FAIR" INDICATES FEW OR NO CLOUDS BELOW 12000 FEET WITH NO
SIGNIFICANT WEATHER AND/OR OBSTRUCTIONS TO VISIBILITY.

COZ001>005-013-030-031-201200-
...NORTHWEST COLORADO...

CITY           SKY/WX    TMP DP  RH WIND       PRES   REMARKS
CRAIG          CLEAR     33  28  81 CALM      30.20R
HAYDEN         CLEAR     41  28  60 E10       30.20R
MEEKER         CLEAR     36  31  82 CALM      30.20S
MOUNT WERNER   NOT AVBL
STEAMBOAT SPGS CLEAR     37  29  74 CALM      30.22S
WALDEN         CLEAR     28  23  80 SE8       30.28R WCI  20
$$

COZ006>008-011-201200-
...WEST CENTRAL VALLEYS...

CITY           SKY/WX    TMP DP  RH WIND       PRES   REMARKS
GRAND JUNCTION MOCLDY    47  34  60 CALM      30.12R
MONTROSE       CLEAR     42  37  82 SE5       30.19R
EAGLE          CLEAR     36  34  93 CALM      30.28R
RIFLE          CLEAR     41  34  76 E5        30.18R
DELTA          CLEAR     48  38  68 NE5       30.17R
NUCLA          CLEAR     45  36  70 SE8       30.22S
$$

COZ017>023-064>068-201200-
...SOUTHWEST COLORADO...

CITY           SKY/WX    TMP DP  RH WIND       PRES   REMARKS
DURANGO        PTCLDY    40  39  97 CALM      30.22S
CORTEZ         CLEAR     40  38  93 NE6       30.18S
PAGOSA SPRINGS PTCLDY    38  38 100 CALM      30.27S
TELLURIDE      PTCLDY    39  34  83 SE6       30.34R
WOLF CREEK PAS MOCLDY    34  30  86 SE5       30.46S WCI  30
$$

COZ009-010-012-014-032>034-037-058>063-201200-
...CENTRAL COLORADO...

CITY           SKY/WX    TMP DP  RH WIND       PRES   REMARKS
ASPEN          CLEAR    N/A N/A N/A SW5       30.26S
BUENA VISTA    PTCLDY    38  32  80 CALM      30.31S
COPPER MTN     CLEAR     37  27  65 S20       30.47S
BERTHOUD PASS  FAIR      32  28  86 W7        30.51R WCI  26
COTTONWOOD PAS PTCLDY    45  32  61 W5        30.38S
GUNNISON       CLEAR     34  28  80 SE3       30.32R
KREMMLING      CLEAR     30  27  86 CALM        N/A
LEADVILLE      CLEAR     27  26  96 NE5       30.38S WCI  22
MONARCH PASS   CLEAR     34  30  86 CALM      30.57S
SALIDA         PTCLDY    41  35  77 CALM      30.38S
SUNLIGHT       CLEAR     41  32  70 CALM      30.42S
WILKERSON PASS NOT AVBL
$$

COZ069>075-201200-
...SAN LUIS VALLEY/SANGRE DE CRISTO MOUNTAINS...

CITY           SKY/WX    TMP DP  RH WIND       PRES   REMARKS
ALAMOSA        MOCLDY    32  29  88 SE3       30.28R
LA VETA PASS   NOT AVBL
SAGUACHE       CLEAR     41  36  81 NW10      30.30R
$$

COZ035-036-038>040-201200-
...NORTHERN COLORADO FRONT RANGE...

CITY           SKY/WX    TMP DP  RH WIND       PRES   REMARKS
DENVER INTL AP PTCLDY    49  36  61 SW9       30.16R
DMNS CITY PARK   N/A     46  35  65 S3        30.17S
AURORA         CLEAR     49  37  63 S12       30.17S
FRONT RANGE AP CLEAR     48  41  76 SW9       30.17R
ERIE MUNI ARPT CLEAR     38  35  87 S3        30.16R
BOULDER MUN AP CLEAR     45  34  65 CALM      30.15S
CENTENNIAL     PTCLDY    45  35  68 SE3       30.18S
BROOMFIELD     CLEAR     50  32  50 CALM      30.17S
FORT COLLINS   CLEAR     43  36  75 N3        30.16S
LONGMONT       CLEAR     41  35  79 CALM      30.17S
$$

COZ041-046-047-076>085-087-088-201200-
...PIKES PEAK/PALMER DIVIDE AND SOUTHERN FOOTHILLS...

CITY           SKY/WX    TMP DP  RH WIND       PRES   REMARKS
COLO. SPRINGS  CLEAR     44  36  73 N6        30.23S
A. F. ACADEMY  CLEAR     37  32  84 N14       30.24R
ELLICOTT       NOT AVBL
FALCON         CLEAR     38  33  82 NW6       30.26S
FORT CARSON    CLEAR     43  35  72 NW7       30.20S
LIMON          CLEAR     36  34  92 N3        30.19R
MONUMENT HILL  CLEAR     41  34  75 SW8       30.24R
TRINIDAD       CLEAR     46  36  68 W14       30.20R
$$

COZ042>045-048>051-090-091-201200-
...NORTHEAST COLORADO...

CITY           SKY/WX    TMP DP  RH WIND       PRES   REMARKS
GREELEY ARPT   CLEAR     37  28  70 CALM      30.15S
AKRON          CLEAR     46  38  73 SW7       30.14S
BURLINGTON     CLEAR     39  35  86 W6        30.14R
WRAY           CLEAR     37  36  93 W6        30.12S
STERLING       CLEAR     37  36  93 W3        30.12F
HOLYOKE        CLEAR     37  34  87 W5        30.12R
FORT MORGAN    CLEAR     43  35  74 W7        30.14S
$$

COZ086-089-092>099-201200-
...SOUTHEAST COLORADO...

CITY           SKY/WX    TMP DP  RH WIND       PRES   REMARKS
PUEBLO         CLEAR     45  38  76 CALM      30.17R
LA JUNTA       CLEAR     45  40  82 SW8       30.14R
LAMAR            N/A     39  37  92 SW6       30.11R
SPRINGFIELD      N/A     41  39  93 SW8       30.14R
$$



USA.gov is the U.S. government's official web portal to all federal, state and local government web resources and services.